When you browse on this site, cookies collect data to enhance your experience and personalize the content and advertising you see.
Visit our Privacy Policy to learn more. By continuing to use the site, you agree to this use of cookies and data.
  • En España
  • Lista de países
  • Para 7 días
  • Temperatura del agua
  • El tiempo en el mapa
  • Informadores
  • user-avatar
    Iniciar sesión

    Tiempo cada hora Sabadell

    Hoy, 29 Mayo, Viernes

    Tiempo Temperatura Precipitaciones Viento Presión Humedad
    00:00 +21°C° 0 mm 1 mps 746 mmHg 60%
    01:00 +21°C° 0 mm 1 mps 746 mmHg 60%
    02:00 +20°C° 0 mm 1 mps 746 mmHg 61%
    03:00 +20°C° 0 mm 1 mps 746 mmHg 62%
    04:00 +21°C° 0 mm 1 mps 745 mmHg 60%
    05:00 +21°C° 0 mm 1 mps 745 mmHg 59%
    06:00 +22°C° 0 mm 1 mps 745 mmHg 57%
    07:00 +24°C° 0 mm 2 mps 745 mmHg 52%
    08:00 +25°C° 0 mm 2 mps 745 mmHg 47%
    09:00 +27°C° 0 mm 2 mps 745 mmHg 42%
    10:00 +28°C° 0 mm 3 mps 744 mmHg 40%
    11:00 +29°C° 0 mm 3 mps 744 mmHg 39%
    12:00 +30°C° 0 mm 4 mps 744 mmHg 37%
    13:00 +29°C° 0.1 mm 4 mps 744 mmHg 39%
    14:00 +29°C° 0.1 mm 5 mps 743 mmHg 41%
    15:00 +28°C° 0.1 mm 5 mps 743 mmHg 44%
    16:00 +26°C° 1 mm 4 mps 743 mmHg 51%
    17:00 +24°C° 1 mm 3 mps 743 mmHg 58%
    18:00 +21°C° 1 mm 3 mps 742 mmHg 66%
    19:00 +21°C° 0.7 mm 2 mps 743 mmHg 67%
    20:00 +21°C° 0.7 mm 1 mps 744 mmHg 68%
    21:00 +21°C° 0.7 mm 1 mps 744 mmHg 68%
    22:00 +21°C° 0 mm 1 mps 744 mmHg 69%
    23:00 +20°C° 0 mm 1 mps 744 mmHg 70%

    Mañana, 30 Mayo, Sábado

    Tiempo Temperatura Precipitaciones Viento Presión Humedad
    00:00 +20°C° 0 mm 1 mps 744 mmHg 70%
    01:00 +20°C° 0 mm 1 mps 744 mmHg 71%
    02:00 +20°C° 0 mm 1 mps 744 mmHg 72%
    03:00 +19°C° 0 mm 1 mps 744 mmHg 73%
    04:00 +20°C° 0 mm 1 mps 744 mmHg 73%
    05:00 +20°C° 0 mm 1 mps 744 mmHg 73%
    06:00 +20°C° 0 mm 1 mps 744 mmHg 72%
    07:00 +21°C° 0 mm 2 mps 744 mmHg 66%
    08:00 +23°C° 0 mm 2 mps 744 mmHg 60%
    09:00 +25°C° 0 mm 2 mps 744 mmHg 54%
    10:00 +25°C° 0 mm 3 mps 744 mmHg 52%
    11:00 +26°C° 0 mm 3 mps 744 mmHg 50%
    12:00 +26°C° 0 mm 4 mps 743 mmHg 48%
    13:00 +26°C° 0 mm 4 mps 743 mmHg 50%
    14:00 +26°C° 0 mm 4 mps 743 mmHg 52%
    15:00 +26°C° 0 mm 4 mps 743 mmHg 53%
    16:00 +25°C° 0 mm 3 mps 743 mmHg 56%
    17:00 +24°C° 0 mm 3 mps 742 mmHg 58%
    18:00 +24°C° 0 mm 2 mps 742 mmHg 61%
    19:00 +23°C° 0 mm 2 mps 742 mmHg 65%
    20:00 +21°C° 0 mm 2 mps 743 mmHg 69%
    21:00 +21°C° 0 mm 1 mps 743 mmHg 73%
    22:00 +21°C° 0 mm 1 mps 743 mmHg 74%
    23:00 +20°C° 0 mm 1 mps 743 mmHg 75%

    Pasado mañana, 31 Mayo, Domingo

    Tiempo Temperatura Precipitaciones Viento Presión Humedad
    00:00 +20°C° 0 mm 1 mps 742 mmHg 75%
    01:00 +20°C° 0 mm 1 mps 742 mmHg 76%
    02:00 +20°C° 0 mm 1 mps 742 mmHg 76%
    03:00 +20°C° 0 mm 1 mps 742 mmHg 76%
    04:00 +20°C° 0 mm 1 mps 742 mmHg 73%
    05:00 +21°C° 0 mm 1 mps 742 mmHg 71%
    06:00 +21°C° 0 mm 1 mps 742 mmHg 68%
    07:00 +23°C° 0 mm 2 mps 742 mmHg 60%
    08:00 +24°C° 0 mm 2 mps 743 mmHg 52%
    09:00 +26°C° 0 mm 2 mps 743 mmHg 45%
    10:00 +26°C° 0 mm 3 mps 743 mmHg 44%
    11:00 +27°C° 0 mm 4 mps 743 mmHg 43%
    12:00 +28°C° 0 mm 4 mps 743 mmHg 42%
    13:00 +28°C° 0 mm 5 mps 742 mmHg 44%
    14:00 +27°C° 0 mm 5 mps 742 mmHg 45%
    15:00 +27°C° 0 mm 5 mps 742 mmHg 46%
    16:00 +26°C° 0 mm 4 mps 742 mmHg 49%
    17:00 +25°C° 0 mm 4 mps 742 mmHg 51%
    18:00 +23°C° 0 mm 4 mps 741 mmHg 54%
    19:00 +22°C° 0.1 mm 3 mps 742 mmHg 57%
    20:00 +21°C° 0.1 mm 2 mps 742 mmHg 61%
    21:00 +21°C° 0.1 mm 1 mps 742 mmHg 64%
    22:00 +21°C° 0 mm 1 mps 742 mmHg 65%
    23:00 +20°C° 0 mm 2 mps 742 mmHg 66%

    1 Junio, Lunes

    Tiempo Temperatura Precipitaciones Viento Presión Humedad
    00:00 +20°C° 0 mm 2 mps 742 mmHg 68%
    01:00 +21°C° 0.2 mm 1 mps 742 mmHg 70%
    02:00 +20°C° 0.2 mm 1 mps 742 mmHg 73%
    03:00 +20°C° 0.2 mm 1 mps 741 mmHg 76%
    04:00 +20°C° 0.4 mm 1 mps 741 mmHg 76%
    05:00 +21°C° 0.4 mm 1 mps 741 mmHg 76%
    06:00 +20°C° 0.4 mm 2 mps 741 mmHg 75%
    07:00 +21°C° 0.2 mm 2 mps 742 mmHg 70%
    08:00 +24°C° 0.2 mm 2 mps 742 mmHg 64%
    09:00 +25°C° 0.2 mm 2 mps 742 mmHg 58%
    10:00 +26°C° 0.2 mm 2 mps 742 mmHg 58%
    11:00 +26°C° 0.2 mm 3 mps 742 mmHg 57%
    12:00 +27°C° 0.2 mm 4 mps 742 mmHg 56%
    13:00 +26°C° 1.4 mm 4 mps 742 mmHg 60%
    14:00 +26°C° 1.4 mm 4 mps 742 mmHg 63%
    15:00 +25°C° 1.4 mm 4 mps 742 mmHg 67%
    16:00 +23°C° 0.7 mm 4 mps 742 mmHg 69%
    17:00 +24°C° 0.7 mm 3 mps 741 mmHg 70%
    18:00 +22°C° 0.7 mm 3 mps 741 mmHg 72%
    19:00 +21°C° 0.2 mm 2 mps 742 mmHg 75%
    20:00 +21°C° 0.2 mm 2 mps 742 mmHg 78%
    21:00 +21°C° 0.2 mm 1 mps 743 mmHg 80%
    22:00 +21°C° 0 mm 1 mps 743 mmHg 81%
    23:00 +21°C° 0 mm 1 mps 742 mmHg 81%

    2 Junio, Martes

    Tiempo Temperatura Precipitaciones Viento Presión Humedad
    00:00 +20°C° 0 mm 1 mps 742 mmHg 81%
    01:00 +20°C° 0 mm 1 mps 742 mmHg 80%
    02:00 +20°C° 0 mm 1 mps 742 mmHg 80%
    03:00 +20°C° 0 mm 1 mps 742 mmHg 79%
    04:00 +21°C° 0 mm 1 mps 742 mmHg 77%
    05:00 +21°C° 0 mm 1 mps 742 mmHg 74%
    06:00 +22°C° 0 mm 1 mps 742 mmHg 71%
    07:00 +23°C° 0 mm 1 mps 742 mmHg 66%
    08:00 +24°C° 0 mm 1 mps 742 mmHg 60%
    09:00 +26°C° 0 mm 2 mps 743 mmHg 54%
    10:00 +26°C° 0 mm 2 mps 743 mmHg 51%
    11:00 +27°C° 0 mm 3 mps 742 mmHg 48%
    12:00 +28°C° 0 mm 3 mps 742 mmHg 45%
    13:00 +28°C° 0 mm 3 mps 742 mmHg 45%
    14:00 +28°C° 0 mm 4 mps 741 mmHg 45%
    15:00 +27°C° 0 mm 4 mps 741 mmHg 44%
    16:00 +27°C° 0 mm 3 mps 741 mmHg 46%
    17:00 +26°C° 0 mm 3 mps 740 mmHg 48%
    18:00 +25°C° 0 mm 3 mps 740 mmHg 50%
    19:00 +24°C° 0 mm 2 mps 740 mmHg 53%
    20:00 +23°C° 0 mm 2 mps 740 mmHg 55%
    21:00 +21°C° 0 mm 2 mps 740 mmHg 57%
    22:00 +21°C° 0 mm 2 mps 740 mmHg 60%
    23:00 +21°C° 0 mm 2 mps 740 mmHg 63%

    3 Junio, Miércoles

    Tiempo Temperatura Precipitaciones Viento Presión Humedad
    00:00 +20°C° 0 mm 2 mps 739 mmHg 66%
    01:00 +20°C° 0 mm 2 mps 739 mmHg 69%
    02:00 +20°C° 0 mm 2 mps 738 mmHg 72%
    03:00 +19°C° 0 mm 2 mps 738 mmHg 74%
    04:00 +20°C° 0 mm 2 mps 738 mmHg 75%
    05:00 +20°C° 0 mm 2 mps 738 mmHg 76%
    06:00 +20°C° 0 mm 2 mps 738 mmHg 78%
    07:00 +21°C° 0 mm 2 mps 738 mmHg 71%
    08:00 +22°C° 0 mm 3 mps 738 mmHg 64%
    09:00 +25°C° 0 mm 3 mps 738 mmHg 57%
    10:00 +25°C° 0 mm 4 mps 738 mmHg 54%
    11:00 +26°C° 0 mm 4 mps 737 mmHg 51%
    12:00 +27°C° 0 mm 4 mps 737 mmHg 48%
    13:00 +27°C° 0 mm 4 mps 737 mmHg 49%
    14:00 +27°C° 0 mm 4 mps 736 mmHg 50%
    15:00 +26°C° 0 mm 4 mps 736 mmHg 51%
    16:00 +26°C° 0 mm 3 mps 736 mmHg 54%
    17:00 +25°C° 0 mm 3 mps 736 mmHg 57%
    18:00 +24°C° 0 mm 2 mps 736 mmHg 60%
    19:00 +23°C° 0 mm 2 mps 736 mmHg 63%
    20:00 +23°C° 0 mm 2 mps 737 mmHg 66%
    21:00 +21°C° 0 mm 2 mps 737 mmHg 69%
    22:00 +20°C° 0.1 mm 2 mps 737 mmHg 72%
    23:00 +20°C° 0.1 mm 2 mps 737 mmHg 75%
    Mostrar más